• In Hungary
  • List of Countries
  • For 7 days
  • Water Temperature
  • Satellite Maps
  • Weather Map
  • News
  • Weather Widgets
  • user-avatar
    Login

    Hourly Weather Stanove

    Today, 18 October, Wednesday

    Time Temperature Precipitation Wind Pressure Humidity
    00:00 +10°C° 0 mm 2 mps 754 mmHg 93%
    01:00 +9°C° 0 mm 3 mps 754 mmHg 94%
    02:00 +9°C° 0 mm 2 mps 754 mmHg 95%
    03:00 +9°C° 0 mm 3 mps 754 mmHg 95%
    04:00 +9°C° 0 mm 3 mps 753 mmHg 95%
    05:00 +8°C° 0 mm 4 mps 753 mmHg 95%
    06:00 +9°C° 0 mm 5 mps 753 mmHg 93%
    07:00 +10°C° 0 mm 5 mps 753 mmHg 92%
    08:00 +10°C° 0 mm 5 mps 752 mmHg 89%
    09:00 +13°C° 0 mm 6 mps 752 mmHg 82%
    10:00 +15°C° 0 mm 6 mps 752 mmHg 76%
    11:00 +16°C° 0 mm 6 mps 752 mmHg 70%
    12:00 +17°C° 0 mm 6 mps 751 mmHg 66%
    13:00 +19°C° 0 mm 6 mps 751 mmHg 62%
    14:00 +20°C° 0 mm 6 mps 751 mmHg 59%
    15:00 +19°C° 0 mm 6 mps 751 mmHg 64%
    16:00 +17°C° 0 mm 5 mps 750 mmHg 68%
    17:00 +17°C° 0 mm 4 mps 750 mmHg 73%
    18:00 +15°C° 0 mm 4 mps 750 mmHg 76%
    19:00 +14°C° 0 mm 4 mps 750 mmHg 79%
    20:00 +14°C° 0 mm 4 mps 750 mmHg 81%
    21:00 +13°C° 0 mm 4 mps 750 mmHg 84%
    22:00 +13°C° 0 mm 3 mps 750 mmHg 86%
    23:00 +12°C° 0 mm 3 mps 750 mmHg 88%

    Tomorrow, 19 October, Thursday

    Time Temperature Precipitation Wind Pressure Humidity
    00:00 +12°C° 0 mm 3 mps 750 mmHg 89%
    01:00 +13°C° 0 mm 2 mps 750 mmHg 91%
    02:00 +12°C° 0 mm 2 mps 750 mmHg 92%
    03:00 +12°C° 0 mm 2 mps 750 mmHg 92%
    04:00 +12°C° 0 mm 2 mps 750 mmHg 93%
    05:00 +11°C° 0 mm 1 mps 750 mmHg 94%
    06:00 +12°C° 0 mm 1 mps 750 mmHg 92%
    07:00 +12°C° 0 mm 1 mps 751 mmHg 90%
    08:00 +13°C° 0 mm 1 mps 751 mmHg 88%
    09:00 +14°C° 0 mm 1 mps 751 mmHg 81%
    10:00 +15°C° 0 mm 1 mps 751 mmHg 74%
    11:00 +16°C° 0 mm 1 mps 751 mmHg 68%
    12:00 +16°C° 0 mm 1 mps 751 mmHg 65%
    13:00 +18°C° 0 mm 1 mps 751 mmHg 62%
    14:00 +18°C° 0 mm 1 mps 751 mmHg 60%
    15:00 +16°C° 0 mm 1 mps 751 mmHg 64%
    16:00 +15°C° 0 mm 2 mps 751 mmHg 68%
    17:00 +14°C° 0 mm 2 mps 751 mmHg 72%
    18:00 +13°C° 0 mm 2 mps 751 mmHg 73%
    19:00 +13°C° 0 mm 2 mps 752 mmHg 75%
    20:00 +12°C° 0 mm 2 mps 752 mmHg 77%
    21:00 +12°C° 0 mm 2 mps 752 mmHg 76%
    22:00 +10°C° 0 mm 2 mps 752 mmHg 76%
    23:00 +10°C° 0 mm 3 mps 752 mmHg 76%

    Day after tomorrow, 20 October, Friday

    Time Temperature Precipitation Wind Pressure Humidity
    00:00 +9°C° 0 mm 3 mps 752 mmHg 76%
    01:00 +9°C° 0 mm 3 mps 753 mmHg 75%
    02:00 +8°C° 0 mm 3 mps 753 mmHg 75%
    03:00 +8°C° 0 mm 3 mps 753 mmHg 74%
    04:00 +7°C° 0 mm 3 mps 753 mmHg 73%
    05:00 +7°C° 0 mm 3 mps 753 mmHg 72%
    06:00 +7°C° 0 mm 3 mps 753 mmHg 71%
    07:00 +7°C° 0 mm 3 mps 754 mmHg 69%
    08:00 +7°C° 0 mm 4 mps 754 mmHg 68%
    09:00 +8°C° 0 mm 4 mps 755 mmHg 63%
    10:00 +10°C° 0 mm 4 mps 755 mmHg 57%
    11:00 +11°C° 0 mm 4 mps 755 mmHg 52%
    12:00 +12°C° 0 mm 3 mps 755 mmHg 50%
    13:00 +12°C° 0 mm 3 mps 755 mmHg 48%
    14:00 +12°C° 0 mm 3 mps 755 mmHg 46%
    15:00 +11°C° 0 mm 3 mps 755 mmHg 51%
    16:00 +10°C° 0 mm 3 mps 755 mmHg 56%
    17:00 +8°C° 0 mm 3 mps 755 mmHg 62%
    18:00 +8°C° 0 mm 2 mps 756 mmHg 64%
    19:00 +7°C° 0 mm 2 mps 756 mmHg 67%
    20:00 +6°C° 0 mm 2 mps 756 mmHg 70%
    21:00 +6°C° 0 mm 2 mps 757 mmHg 74%
    22:00 +5°C° 0 mm 2 mps 757 mmHg 77%
    23:00 +5°C° 0 mm 2 mps 757 mmHg 80%

    21 October, Saturday

    Time Temperature Precipitation Wind Pressure Humidity
    00:00 +5°C° 0 mm 2 mps 757 mmHg 83%
    01:00 +4°C° 0 mm 2 mps 757 mmHg 85%
    02:00 +4°C° 0 mm 2 mps 758 mmHg 88%
    03:00 +3°C° 0 mm 2 mps 758 mmHg 89%
    04:00 +3°C° 0 mm 2 mps 758 mmHg 90%
    05:00 +3°C° 0 mm 2 mps 758 mmHg 90%
    06:00 +2°C° 0 mm 3 mps 758 mmHg 86%
    07:00 +2°C° 0 mm 3 mps 758 mmHg 81%
    08:00 +3°C° 0 mm 3 mps 759 mmHg 77%
    09:00 +4°C° 0 mm 3 mps 759 mmHg 68%
    10:00 +7°C° 0 mm 3 mps 759 mmHg 59%
    11:00 +8°C° 0 mm 3 mps 759 mmHg 50%
    12:00 +8°C° 0 mm 3 mps 759 mmHg 48%
    13:00 +9°C° 0 mm 3 mps 759 mmHg 45%
    14:00 +9°C° 0 mm 2 mps 759 mmHg 43%
    15:00 +8°C° 0 mm 2 mps 759 mmHg 48%
    16:00 +7°C° 0 mm 2 mps 759 mmHg 52%
    17:00 +6°C° 0 mm 2 mps 759 mmHg 57%
    18:00 +5°C° 0 mm 2 mps 759 mmHg 60%
    19:00 +5°C° 0 mm 1 mps 759 mmHg 63%
    20:00 +5°C° 0 mm 1 mps 759 mmHg 66%
    21:00 +5°C° 0 mm 1 mps 759 mmHg 68%
    22:00 +4°C° 0 mm 1 mps 759 mmHg 71%
    23:00 +4°C° 0 mm 1 mps 760 mmHg 73%

    22 October, Sunday

    Time Temperature Precipitation Wind Pressure Humidity
    00:00 +4°C° 0 mm 1 mps 760 mmHg 75%
    01:00 +3°C° 0 mm 1 mps 760 mmHg 76%
    02:00 +3°C° 0 mm 1 mps 760 mmHg 78%
    03:00 +3°C° 0 mm 1 mps 759 mmHg 79%
    04:00 +2°C° 0 mm 2 mps 759 mmHg 80%
    05:00 +1°C° 0 mm 2 mps 759 mmHg 80%
    06:00 +2°C° 0 mm 2 mps 759 mmHg 76%
    07:00 +3°C° 0 mm 2 mps 759 mmHg 73%
    08:00 +3°C° 0 mm 3 mps 759 mmHg 69%
    09:00 +4°C° 0 mm 3 mps 759 mmHg 63%
    10:00 +5°C° 0 mm 3 mps 758 mmHg 58%
    11:00 +6°C° 0 mm 4 mps 758 mmHg 53%
    12:00 +7°C° 0 mm 4 mps 758 mmHg 51%
    13:00 +7°C° 0 mm 4 mps 757 mmHg 49%
    14:00 +7°C° 0 mm 4 mps 757 mmHg 47%
    15:00 +8°C° 0 mm 3 mps 756 mmHg 50%
    16:00 +7°C° 0 mm 3 mps 756 mmHg 54%
    17:00 +6°C° 0 mm 2 mps 755 mmHg 57%
    18:00 +5°C° 0 mm 3 mps 755 mmHg 57%
    19:00 +4°C° 0 mm 3 mps 755 mmHg 57%
    20:00 +4°C° 0 mm 3 mps 755 mmHg 58%
    21:00 +4°C° 0 mm 3 mps 755 mmHg 56%
    22:00 +4°C° 0 mm 3 mps 755 mmHg 55%
    23:00 +4°C° 0 mm 3 mps 754 mmHg 54%

    23 October, Monday

    Time Temperature Precipitation Wind Pressure Humidity
    00:00 +4°C° 0 mm 3 mps 754 mmHg 53%
    01:00 +4°C° 0 mm 3 mps 754 mmHg 52%
    02:00 +4°C° 0 mm 3 mps 754 mmHg 51%
    03:00 +4°C° 0 mm 3 mps 754 mmHg 52%
    04:00 +4°C° 0 mm 3 mps 754 mmHg 52%
    05:00 +4°C° 0 mm 3 mps 753 mmHg 52%
    06:00 +4°C° 0 mm 3 mps 754 mmHg 53%
    07:00 +5°C° 0 mm 3 mps 754 mmHg 53%
    08:00 +5°C° 0 mm 3 mps 754 mmHg 53%
    09:00 +7°C° 0 mm 3 mps 754 mmHg 53%
    10:00 +7°C° 0 mm 3 mps 754 mmHg 53%
    11:00 +8°C° 0 mm 3 mps 754 mmHg 54%
    12:00 +8°C° 0 mm 3 mps 754 mmHg 54%
    13:00 +9°C° 0 mm 3 mps 754 mmHg 54%
    14:00 +9°C° 0 mm 3 mps 753 mmHg 54%
    15:00 +9°C° 0 mm 2 mps 753 mmHg 56%
    16:00 +9°C° 0 mm 2 mps 754 mmHg 57%
    17:00 +8°C° 0 mm 2 mps 754 mmHg 59%
    18:00 +8°C° 0.1 mm 2 mps 754 mmHg 59%
    19:00 +7°C° 0.1 mm 2 mps 754 mmHg 59%
    20:00 +7°C° 0.1 mm 2 mps 754 mmHg 59%
    21:00 +7°C° 0.1 mm 2 mps 754 mmHg 58%
    22:00 +7°C° 0.1 mm 2 mps 754 mmHg 57%
    23:00 +5°C° 0.1 mm 3 mps 755 mmHg 56%
    Show more